User: anonymous   Login
Location: Naloco
(16.5478°S, 37.1017°E)
Time: 12:17:32
(UTC+00:00)
Language:

DMSP B5D2-2 - Orbit

View from above orbital plane
View from above orbital plane
View from above satellite
View from above satellite

Ground track
Ground track

The orbit data is extracted from the following two-line orbital elements,

1 14506U 83113A   20296.80904409 +.00000030 +00000-0 +28432-4 0  9991
2 14506 098.3180 143.2897 0010687 202.1379 168.3724 14.28114832920856
Epoch (UTC): 22 October 2020 19:25:01
Eccentricity: 0.0010687
inclination: 98.3180°
perigee height: 790 km
apogee height: 806 km
right ascension of ascending node: 143.2897°
argument of perigee: 202.1379°
revolutions per day: 14.28114832
mean anomaly at epoch: 168.3724°
orbit number at epoch: 92085

The dashed part of the orbit path shows where the satellite is in the earth's shadow,  

DLR